Погода в Евлашеве

Россия / Пензенская область     53°06′42″N   46°49′41″E
темп.,
°C
ветер,
м/с
пор.,
м/с
влажн.,
%
обл.,
%
осадки,
мм/ч
давл.,
гПа
погр.,
м
12 мая, ср
ср1200:00+10св2496100 0.1 1026130
03:00+11всв41096100 1.1 1025388
06:00+13в41386100 1.3 1024822
09:00+13в51580100 1.3 1023734
12:00+14в61575100 0.3 1023709
15:00+16вюв61475100 0.3 10231104
18:00+16вюв6137789 0.1 10211063
21:00+13вюв310928 0.3 1022242
13 мая, чт
чт1300:00+12в36940 0.0 102298
03:00+12всв39945 0.0 1021167
06:00+14вюв51378100 0.5 1021506
09:00+15вюв51484100 1.9 1020466
12:00+21юв71359100 0.1 10191168
15:00+21ююв71462100 0.1 10191412
18:00+20ю377062 0.1 1018382
21:00+16вюв2588100 3.2 101979
14 мая, пт
пт1400:00+14ю238778 0.0 102048
03:00+13ююв1191100 0.0 102011
06:00+16вюв2486100 0.0 102096
09:00+21юв4763100 0.0 1020468
12:00+23ююв5845100 0.0 1020877
15:00+25ю58430 0.0 10201245
18:00+23ююв410595 0.0 1019513
21:00+18ююв41464100 0.0 1019295
15 мая, сб
сб1500:00+18ююв51555100 0.0 1019353
03:00+15ююв4135944 0.0 1020240
06:00+17ююв4125648 0.0 1020276
09:00+23ю612395 0.0 1019525
12:00+26ююв610315 0.0 1019963
15:00+27ю610345 0.0 10181678
18:00+24ююв411485 0.0 1017474
21:00+19ююв4135317 0.0 1018274
16 мая, вс
вс1600:00+17ююв311585 0.0 1018198
03:00+16ююв311610 0.0 1018181
06:00+18ююв311600 0.0 1018257
09:00+24ю5104023 0.0 1017614
12:00+26ю5835100 0.0 10171187
15:00+27ююз511290 0.0 10162336
18:00+24ю22500 0.0 101640
21:00+19ююв22616 0.0 101613